TURKSAT 5A (47306 NORAD) Tracking and Keplerian Element Data

This shows tracking and keplerian element data for the satellite.

Feedback or suggestion? Click here.




ElementValue
Catalog47306
NameTURKSAT 5A
Epoch Orbit105
Epoch Day105.79354993
Epoch Year2021
RAAN312.1321
Inclination1.1335
Eccentricity0.1851675
Argument of Perigee205.3799
Mean Anonmoly44.8934
Mean Motion0.98855485
Decay Rate-1E-07
L11 47306U 21001A 21105.79354993 -.00000010 00000-0 00000-0 0 9994
L22 47306 1.1335 312.1321 1851675 205.3799 44.8934 0.98855485 1056

Live tracking and technical data element details for TURKSAT 5A (NORAD 47306). TURKSAT 5A can be tracked NOW for your location showing map with azimuth and elevation plus other details from your city location.

Track the satellite on the map from your city or location and see movement details for azimuth, elevation, latitude, longitude, range, height, and movement on the map or in text.







IsCatalogInMostPopularTable: catalog: 47306, numindb: 28
Update: records affected: 1



GetName: 47306 TURKSAT 5A

Hit Count: updated at: Fri, 16 Apr 2021 10:41:58 GMT